[[{"header":{"parameterUnit":"m.s-1","parameterCategory":1,"la1":30.2991,"la2":30.254,"lo1":-89.0895,"lo2":-89.0444,"dy":0.0017,"dx":0.0017,"nx":28,"ny":28,"refTime":"2024-07-20T21:00:00:Z","depth":0,"parameterNumber":2,"parameterNumberName":"U-component_of_WINDS"},"data":[0,0,0,0,0,0,0,0,0,0,0,0,0,0,0,0,0,0,0,0,0,0,0,0,0,0,0,0,0,0,0,0,0,0,0,0,0,0,0,0,0,0,0,0,0,0,0,0,0,0,0,0,0,0,0,0,0,0,1.6456,1.6458,0,1.6584,1.6585,1.6587,1.6597,1.6596,1.6595,1.6593,1.6725,1.673,1.6734,0,0,0,0,0,0,0,0,0,0,0,0,0,1.6222,1.6227,1.6456,1.6458,1.646,1.6584,1.6585,1.6587,1.6598,1.6596,1.6594,1.6593,1.6724,1.6729,1.6735,0,0,0,0,0,0,0,0,0,0,0,0,0,1.6334,1.6228,1.6456,1.648,1.6483,1.6583,1.6585,1.6588,1.6598,1.6596,1.6594,1.6592,1.6722,1.6729,1.6736,1.6821,0,0,1.6758,1.6761,0,0,0,0,0,0,0,0,1.6328,1.6343,1.6475,1.6478,1.6482,1.6573,1.6551,1.6666,1.6599,1.6554,1.6593,1.6591,1.6676,1.6687,1.6715,1.6827,1.6833,1.6758,1.6763,1.6766,1.6768,0,0,0,0,0,0,0,1.632,1.6337,1.6507,1.6477,1.6481,1.6484,1.6498,1.6573,1.6625,1.6558,1.6559,1.6574,1.6678,1.6708,1.6719,1.6835,1.6758,1.6764,1.6769,1.6772,1.7022,1.7024,0,0,0,0,0,0,1.6308,1.6331,1.6503,1.6511,1.6398,1.649,1.6505,1.6546,1.6625,1.6635,1.6576,1.6574,1.6697,1.671,1.6723,1.6827,1.6766,1.6772,1.6776,1.702,1.7023,1.7025,0,0,0,0,0,0,1.6303,1.6323,1.6498,1.6421,1.6444,1.6496,1.6542,1.6549,1.658,1.6638,1.6647,1.6597,1.6696,1.6713,1.6796,1.6832,1.6776,1.6782,1.7017,1.7021,1.7024,1.7037,0,0,0,0,0,0,1.6296,1.6321,1.6354,1.6422,1.6448,1.6569,1.6544,1.6553,1.6592,1.6591,1.6661,1.667,1.6696,1.6786,1.6803,1.6841,1.6788,1.7014,1.7019,1.7023,1.7034,1.7041,1.7047,0,0,0,0,0,1.6288,1.6354,1.6356,1.6377,1.649,1.6571,1.6585,1.6613,1.6595,1.6629,1.6665,1.6668,1.6825,1.6794,1.6814,1.6855,1.7012,1.7017,1.7022,1.7031,1.7039,1.7047,0,0,0,0,0,0,1.629,1.6363,1.6366,1.6456,1.6507,1.6572,1.6616,1.6622,1.6679,1.6676,1.6708,1.6724,1.6806,1.6839,1.6802,1.6941,1.6917,1.6926,1.6916,1.6925,1.6931,1.6921,1.6794,0,0,0,0,0,1.63,1.636,1.6421,1.6494,1.6519,1.6563,1.6599,1.6616,1.667,1.6692,1.6735,1.6788,1.6849,1.6889,1.6949,1.7039,1.7053,1.7076,1.7083,1.7088,1.7095,1.7144,1.7155,1.7042,1.7042,1.7042,0,0,1.6323,1.6371,1.6406,1.6495,1.6537,1.6597,1.6581,1.6646,1.6691,1.6702,1.6783,1.6816,1.6877,1.6964,1.7004,1.6994,1.713,1.7094,1.7098,1.7103,1.7151,1.7161,1.7171,1.7046,1.7045,1.7045,0,0,1.6396,1.6438,1.6503,1.6545,1.6607,1.6636,1.6651,1.6716,1.6738,1.682,1.6829,1.6883,1.6988,1.7031,1.7066,1.7153,1.7157,1.7172,1.7206,1.7253,1.7262,1.727,1.73,1.731,1.718,1.718,1.718,0,1.6417,1.6508,1.6536,1.6601,1.6639,1.6651,1.6717,1.6756,1.6835,1.6861,1.6848,1.6979,1.7021,1.7117,1.7138,1.7167,1.7185,1.7164,1.7258,1.7266,1.7274,1.7303,1.7315,1.7181,1.7181,1.7181,1.7181,0,1.653,1.6593,1.6638,1.6713,1.6757,1.6822,1.6859,1.69,1.6913,1.6942,1.7025,1.7075,1.7145,1.7169,1.7183,1.7267,1.7258,1.7251,1.7228,1.7286,1.7314,1.7325,1.7183,1.7182,1.7182,1.7182,0,0,1.6608,1.6697,1.6713,1.6747,1.6816,1.6865,1.693,1.6998,1.7032,1.7086,1.714,1.7228,1.7222,1.7262,1.7281,1.7322,1.7387,1.731,1.7312,1.7322,1.7481,1.7485,1.7498,1.739,1.7392,1.7394,1.7476,0,1.6688,1.6804,1.683,1.693,1.6988,1.6999,1.7056,1.7104,1.7133,1.7187,1.7219,1.7281,1.7268,1.7292,1.7334,1.737,1.7419,1.7364,1.7441,1.7443,1.7424,1.7513,1.7518,1.7593,1.7487,1.7489,1.749,0,1.6797,1.6852,1.6957,1.7018,1.7043,1.7093,1.7156,1.7208,1.7262,1.7281,1.7325,1.7339,1.7406,1.7379,1.7472,1.7435,1.7467,1.749,1.7493,1.7501,1.747,1.7522,1.7618,1.7628,1.7508,1.7507,1.7505,0,1.6842,1.6943,1.7018,1.7047,1.712,1.7155,1.7187,1.724,1.7278,1.7333,1.7358,1.7421,1.7455,1.7503,1.7533,1.7511,1.7623,1.7599,1.764,1.7639,1.7663,1.7661,1.7764,1.7685,1.7685,1.7685,1.7684,0,1.6928,1.6992,1.7039,1.7086,1.7157,1.7186,1.7256,1.7288,1.7335,1.7387,1.7401,1.745,1.7487,1.7541,1.7565,1.7638,1.7654,1.767,1.7676,1.7669,1.7666,1.769,1.7685,1.7688,1.7687,1.7686,1.7686,0,1.6991,1.7025,1.7108,1.717,1.7187,1.7236,1.7289,1.7334,1.7363,1.7429,1.7447,1.7493,1.7557,1.7591,1.7672,1.7688,1.7769,1.7773,1.7751,1.7753,1.7791,1.7787,1.7913,1.793,1.784,1.7841,1.7842,0,1.7043,1.7092,1.7158,1.7194,1.7227,1.7285,1.7323,1.7354,1.7394,1.7459,1.7496,1.7561,1.7615,1.7716,1.7757,1.7818,1.7823,1.7862,1.7832,1.7823,1.7822,1.7818,1.7823,1.7868,1.7868,1.7869,1.787,0,1.7132,1.7146,1.7201,1.7263,1.7308,1.7358,1.7407,1.7436,1.7474,1.7518,1.7584,1.7625,1.7707,1.777,1.7835,1.7868,1.7875,1.7879,1.7891,1.7884,1.7869,1.7877,1.7764,1.7876,1.7875,1.7875,1.7874,1.7874,1.719,1.7234,1.7287,1.7348,1.7388,1.7433,1.7478,1.7512,1.7567,1.7636,1.765,1.7719,1.7772,1.7859,1.7893,1.7947,1.794,1.7958,1.7963,1.7966,1.7967,1.7861,1.7959,1.7959,1.7959,1.7959,1.7959,0,1.7279,1.7313,1.7369,1.7437,1.7484,1.7487,1.7541,1.758,1.7641,1.7689,1.7741,1.7815,1.7877,1.7922,1.7984,1.8019,1.8024,1.8034,1.8032,1.8039,1.7971,1.7954,1.8029,1.8029,1.8029,1.8029,1.8029,1.8029,1.7331,1.7404,1.7424,1.7517,1.7551,1.7618,1.7649,1.769,1.7729,1.7811,1.7862,1.7891,1.7938,1.8004,1.806,1.8072,1.8094,1.8104,1.8116,1.8052,1.8044,1.8037,1.802,1.8109,1.8109,1.8179,1.8179,1.818]},{"header":{"parameterUnit":"m.s-1","parameterCategory":1,"la1":30.2991,"la2":30.254,"lo1":-89.0895,"lo2":-89.0444,"dy":0.0017,"dx":0.0017,"nx":28,"ny":28,"refTime":"2024-07-20T21:00:00:Z","depth":0,"parameterNumber":3,"parameterNumberName":"V-component_of_WINDS"},"data":[0,0,0,0,0,0,0,0,0,0,0,0,0,0,0,0,0,0,0,0,0,0,0,0,0,0,0,0,0,0,0,0,0,0,0,0,0,0,0,0,0,0,0,0,0,0,0,0,0,0,0,0,0,0,0,0,0,0,4.7251,4.7251,0,4.7308,4.7309,4.7309,4.727,4.7268,4.7266,4.7265,4.7318,4.7321,4.7324,0,0,0,0,0,0,0,0,0,0,0,0,0,4.7101,4.7104,4.7251,4.7251,4.7252,4.7308,4.7309,4.7309,4.727,4.7268,4.7266,4.7264,4.7317,4.7321,4.7324,0,0,0,0,0,0,0,0,0,0,0,0,0,4.7163,4.7105,4.725,4.7239,4.7239,4.7308,4.7309,4.731,4.7271,4.7268,4.7265,4.7263,4.7316,4.732,4.7325,4.7406,0,0,4.7339,4.7341,0,0,0,0,0,0,0,0,4.7159,4.7168,4.724,4.724,4.724,4.7279,4.7275,4.7342,4.7271,4.7258,4.7265,4.7261,4.7307,4.7312,4.7328,4.7409,4.7411,4.7339,4.7342,4.7344,4.7345,0,0,0,0,0,0,0,4.7155,4.7165,4.7273,4.7241,4.7241,4.7229,4.7235,4.7288,4.7296,4.7259,4.7257,4.7264,4.7306,4.7324,4.7329,4.7412,4.7339,4.7343,4.7346,4.7348,4.756,4.7563,0,0,0,0,0,0,4.7152,4.7162,4.7271,4.7275,4.7192,4.7234,4.7241,4.7269,4.7296,4.7298,4.7266,4.7262,4.7317,4.7324,4.7331,4.7428,4.7344,4.7348,4.7351,4.7557,4.7561,4.7564,0,0,0,0,0,0,4.7149,4.7163,4.7269,4.7218,4.7231,4.724,4.7272,4.7272,4.729,4.7301,4.7302,4.7284,4.7316,4.7325,4.7388,4.7429,4.735,4.7354,4.7554,4.7558,4.7562,4.7622,0,0,0,0,0,0,4.7145,4.7162,4.7194,4.7219,4.7233,4.7327,4.7274,4.7275,4.7298,4.7293,4.7318,4.7319,4.7314,4.7381,4.7392,4.7434,4.7358,4.755,4.7556,4.7561,4.7616,4.7627,4.7637,0,0,0,0,0,4.714,4.7208,4.7196,4.721,4.7275,4.7329,4.7337,4.7332,4.7302,4.7333,4.7341,4.7318,4.7423,4.7388,4.74,4.7444,4.7548,4.7554,4.7561,4.7611,4.7625,4.7637,0,0,0,0,0,0,4.7186,4.7211,4.7198,4.7276,4.7301,4.7323,4.7363,4.7347,4.738,4.7373,4.7364,4.7369,4.7436,4.7446,4.7407,4.7523,4.748,4.7489,4.7514,4.7528,4.7538,4.7534,4.7362,0,0,0,0,0,4.7205,4.725,4.7268,4.7335,4.7348,4.7354,4.7377,4.7371,4.7396,4.7405,4.7417,4.7441,4.7478,4.7504,4.7539,4.7617,4.7621,4.7653,4.7663,4.7672,4.768,4.7721,4.7735,4.7585,4.7585,4.7585,0,0,4.7245,4.7264,4.7293,4.7345,4.7363,4.7408,4.7363,4.7411,4.7443,4.7412,4.7473,4.7483,4.7508,4.7579,4.7611,4.7589,4.7722,4.768,4.7687,4.7691,4.7729,4.7743,4.7756,4.759,4.7589,4.7588,0,0,4.7341,4.736,4.7418,4.7438,4.7467,4.747,4.7484,4.7508,4.7514,4.7575,4.7552,4.7589,4.7655,4.7674,4.7692,4.7794,4.7774,4.7806,4.7861,4.7901,4.7913,4.7923,4.7959,4.7972,4.7814,4.7814,4.7814,0,4.7386,4.7454,4.7449,4.75,4.7523,4.7498,4.7556,4.7574,4.7613,4.7628,4.7604,4.7686,4.7701,4.7776,4.7801,4.7817,4.7831,4.7803,4.7912,4.7922,4.7932,4.7966,4.7979,4.7817,4.7817,4.7817,4.7816,0,4.7508,4.7556,4.7598,4.7639,4.7666,4.772,4.7721,4.7749,4.774,4.7745,4.7807,4.7824,4.7862,4.788,4.7871,4.7953,4.7939,4.7914,4.787,4.795,4.7982,4.7995,4.7823,4.7821,4.782,4.7819,0,0,4.7635,4.7672,4.7687,4.7705,4.7735,4.777,4.7822,4.7861,4.7885,4.7912,4.7954,4.8011,4.7987,4.8008,4.8001,4.8036,4.8115,4.8006,4.8007,4.8026,4.8205,4.8224,4.8239,4.8102,4.8105,4.8107,4.8203,0,4.7732,4.7825,4.7821,4.7907,4.7949,4.7926,4.7971,4.7993,4.7999,4.8034,4.8039,4.8079,4.8046,4.8058,4.8092,4.8099,4.8151,4.8091,4.814,4.8141,4.8134,4.8256,4.8276,4.8366,4.8215,4.8218,4.8219,0,4.7858,4.7891,4.7982,4.8005,4.8023,4.8064,4.8099,4.8134,4.8157,4.8159,4.8182,4.8169,4.8219,4.8175,4.8243,4.8202,4.8221,4.8228,4.8231,4.8235,4.8185,4.8263,4.8395,4.8408,4.8239,4.8237,4.8236,0,4.794,4.8007,4.807,4.8086,4.8115,4.8144,4.8157,4.8179,4.8202,4.8232,4.8247,4.8282,4.8301,4.8327,4.8323,4.8291,4.8393,4.8348,4.8394,4.8394,4.8416,4.8415,4.8553,4.8429,4.8429,4.8429,4.8428,0,4.8049,4.8105,4.8108,4.8146,4.8208,4.8202,4.8262,4.8272,4.8291,4.833,4.8311,4.8347,4.834,4.8375,4.8372,4.8428,4.8437,4.8438,4.8437,4.844,4.844,4.8452,4.8446,4.8432,4.8431,4.8431,4.843,0,4.8151,4.8156,4.8223,4.8245,4.8252,4.8296,4.8314,4.835,4.8354,4.8402,4.8413,4.8419,4.846,4.8459,4.8504,4.8502,4.8571,4.8562,4.8564,4.8562,4.8608,4.8603,4.8759,4.8778,4.8642,4.8643,4.8645,0,4.8221,4.8263,4.8291,4.8316,4.8332,4.8373,4.8397,4.8393,4.8418,4.8449,4.848,4.8519,4.855,4.8616,4.8623,4.8657,4.8649,4.8701,4.8654,4.8656,4.8649,4.8647,4.865,4.871,4.8712,4.8713,4.8714,0,4.8342,4.8342,4.838,4.8417,4.8447,4.8476,4.8503,4.8524,4.8522,4.8551,4.8594,4.8618,4.8665,4.8704,4.8737,4.8748,4.873,4.8729,4.8741,4.8745,4.8744,4.8744,4.8589,4.8725,4.8724,4.8723,4.8722,4.8722,4.843,4.8467,4.8492,4.8534,4.8553,4.8579,4.8613,4.8622,4.8658,4.8697,4.8691,4.8738,4.876,4.8803,4.8817,4.8852,4.8833,4.8851,4.8856,4.886,4.8865,4.8738,4.8858,4.8857,4.8857,4.8857,4.8857,0,4.855,4.8566,4.8604,4.8643,4.8675,4.8657,4.8685,4.8713,4.8755,4.8778,4.8809,4.8857,4.8894,4.8904,4.8939,4.8966,4.8958,4.8975,4.8973,4.8975,4.888,4.8866,4.898,4.898,4.898,4.898,4.898,4.898,4.8617,4.8678,4.8681,4.8751,4.8765,4.8813,4.883,4.8853,4.8871,4.8926,4.8957,4.8964,4.8981,4.9017,4.905,4.9052,4.9065,4.9085,4.9084,4.8995,4.8982,4.897,4.8957,4.9088,4.9089,4.9176,4.9177,4.9177]}]]